Location: Wildcat Hills Observatory
(41.6350°N, 103.6812°W)
Time: 22:42:04
(UTC-07:00)

Daily predictions for brighter satellites

Satellite Brightness Start Highest point End
(mag) Time Altitude Azimuth Time Altitude Azimuth Time Altitude Azimuth
USA 116 4.4 17:20:03 10° NNE 17:24:24 51° E 17:29:11 10° S
Tiangong 1 0.5 17:25:40 10° W 17:28:09 81° SSW 17:30:37 10° ESE
Cosmos 1400 Rocket 2.9 17:24:13 10° S 17:28:17 87° W 17:32:26 10° N
Cosmos 2218 Rocket 4.1 17:23:06 10° N 17:29:08 54° ENE 17:35:07 10° SSE
SMAP 3.2 17:24:38 10° SSE 17:29:17 85° WSW 17:33:58 10° NNW
CORIOLIS 4.2 17:27:03 10° SSE 17:32:23 86° ENE 17:37:46 10° NNW
Cosmos 1656 Rocket 3.8 17:27:50 10° NNW 17:33:12 53° ENE 17:38:35 10° SE
IRS-1A Rocket 4.3 17:29:46 10° SSE 17:35:13 62° ENE 17:40:48 10° N
Cosmos 2228 Rocket 4.4 17:34:06 10° NNE 17:37:36 21° ENE 17:41:06 10° ESE
ERS-2 3.6 17:35:40 10° ESE 17:38:13 18° ENE 17:40:47 10° NNE
Ariane Rocket 3.2 17:33:51 10° S 17:38:54 77° WSW 17:44:01 10° NNW
SL-24 R/B - RUBIN 2 3.5 17:34:34 10° NNW 17:39:06 63° NE 17:43:21 10° SE
Cosmos 1328 Rocket 4.4 17:35:38 10° NNE 17:39:22 27° ENE 17:43:02 10° SE
Cosmos 1300 2.6 17:36:14 10° N 17:40:05 84° E 17:43:54 10° S
Cosmos 2369 Rocket 4.0 17:36:04 10° NW 17:41:14 37° WSW 17:46:25 10° S
CSL-04 Rocket 4.4 17:38:25 10° S 17:43:53 60° WSW 17:49:21 10° NNW
Cosmos 1703 4.3 17:41:06 10° SSE 17:44:25 26° E 17:47:45 10° NNE
Cosmos 1943 Rocket 3.1 17:39:12 10° NNW 17:44:38 53° WSW 17:49:58 10° S
ERBS 4.3 17:45:39 10° N 17:47:31 14° NNE 17:48:44 12° NE
SL-08 R/B 4.4 17:43:57 10° N 17:50:06 65° E 17:56:09 10° SSE
MOS 1 4.4 17:44:53 10° SSE 17:50:22 56° ENE 17:55:52 10° N
Meteor 2-2 Rocket 4.2 17:46:37 10° N 17:52:20 66° ENE 17:57:55 10° SSE
Cosmos 1766 Rocket 3.4 17:51:40 10° S 17:55:59 75° E 18:00:18 10° NNE
Cosmos 44 Rocket 3.2 17:53:18 10° SSW 17:57:58 83° ESE 18:02:44 10° NE
MTI 3.7 17:57:43 10° NNE 18:00:53 61° E 18:04:02 10° S
SL-14 R/B 4.3 17:58:24 10° SSW 18:02:15 48° W 18:06:06 10° N
Cosmos 1777 Rocket 3.9 17:57:57 10° NNW 18:03:13 78° ENE 18:08:29 10° SSE
Cosmos 2366 rocket 4.0 17:57:01 10° N 18:03:17 90° ENE 18:09:27 10° S
FENGYUN 3A 3.6 18:00:18 10° SSE 18:05:37 72° ENE 18:10:59 10° N
SPOT 3 Rocket 3.5 18:02:59 10° SSE 18:08:02 61° ENE 18:13:07 10° N
SKYMED 2 3.5 18:04:03 10° NNE 18:08:24 89° NW 18:12:45 10° SSW
Cosmos 1151 Rocket 3.5 18:07:00 10° N 18:11:04 37° ENE 18:15:08 10° SE
Cosmos 2058 3.2 18:08:51 10° SSE 18:12:50 45° E 18:16:51 10° NNE
YAOGAN 1 3.4 18:10:31 10° S 18:14:44 54° W 18:19:00 10° NNW
ALOS 2.3 18:12:08 10° SSE 18:16:48 85° WSW 18:21:30 10° NNW
Cosmos 332 Rocket 3.9 18:14:10 10° S 18:18:54 52° ESE 18:22:49 15° NNE
USA 81 4.2 18:14:57 10° SSE 18:19:57 47° E 18:25:00 10° NNE
Nadezhda 3 Rocket 4.0 18:16:14 10° S 18:22:24 60° E 18:28:40 10° NNE
Cosmos 2208 Rocket 4.5 18:21:21 10° S 18:26:12 39° ESE 18:28:46 24° NE
CZ-4 R/B 3.8 18:23:38 10° SSW 18:27:13 27° W 18:30:50 10° NW
Lacrosse 5 3.1 18:27:13 10° S 18:31:12 23° ESE 18:31:29 23° ESE
H-2A R/B 2.7 18:27:52 10° SSE 18:31:37 61° ENE 18:35:28 10° N
Cosmos 1346 Rocket 3.2 18:28:51 10° NNW 18:32:43 62° W 18:36:32 10° S
Cosmos 1898 Rocket 4.2 18:28:38 10° N 18:33:21 31° ENE 18:33:42 31° ENE
Meteor 1-27 4.4 18:30:32 10° NNW 18:36:17 80° W 18:42:04 10° S
Cosmos 1455 2.0 18:33:40 10° N 18:37:32 86° E 18:41:21 10° S
Cosmos 2151 2.8 18:33:34 10° S 18:37:50 84° E 18:42:09 10° N
RESURS DK-1 4.5 18:35:57 10° N 18:36:47 14° NNE 18:36:47 14° NNE
COSMOS 2406 3.2 18:34:39 10° SSW 18:40:23 87° WNW 18:45:15 15° NNE
CZ-4C R/B 3.0 18:39:20 10° S 18:43:02 27° ESE 18:43:02 27° ESE
Cosmos 1934 Rocket 4.2 18:38:38 10° N 18:44:48 48° ENE 18:50:55 10° SSE
Cosmos 2098 Rocket 4.2 18:39:34 10° NNW 18:45:02 71° W 18:51:44 10° S
Cosmos 2369 4.5 18:41:44 10° N 18:46:18 31° NE 18:46:18 31° NE
Cosmos 1515 Rocket 3.6 18:42:41 10° N 18:47:02 79° W 18:51:21 10° S
NOSS 3-4 (C) 4.5 18:40:57 10° NW 18:47:54 57° WSW 18:55:18 10° SSE
Cosmos 1626 4.3 18:47:59 10° SW 18:51:09 27° WNW 18:54:22 10° NNW
Envisat 4.0 18:54:07 29° NNE 18:54:07 29° NNE 18:56:59 10° N
GEOS 3 Rocket 3.9 18:52:23 44° E 18:53:23 49° NE 18:58:33 10° NNW
FengYun 1-2 T 4.2 18:48:14 10° SSE 18:53:52 90° WSW 18:59:29 10° NNW
Cosmos 1697 Rocket 4.3 18:53:47 10° N 18:56:00 19° NNE 18:56:00 19° NNE
Cosmos 1570 Rocket 3.9 18:53:59 10° SSW 18:59:18 88° ESE 19:01:56 31° NNE
Cosmos 1500 Rocket 3.9 18:54:59 10° SSW 18:59:25 68° W 19:03:23 13° N
PKM 3.8 18:57:13 10° NW 19:00:03 83° SW 19:00:37 63° SE
Tiangong 1 3.6 19:00:28 10° WSW 19:01:23 15° SW 19:01:23 15° SW
Cosmos 2239 Rocket 4.3 18:57:06 10° N 19:03:17 88° E 19:09:26 10° S
Cosmos 371 Rocket 3.6 18:58:58 10° SSW 19:03:44 65° WNW 19:06:22 26° N
ERS-2 4.1 19:08:23 10° SSW 19:11:39 30° W 19:14:57 10° NW
Thor Agena Rocket 3.6 19:24:47 49° N 19:26:13 76° WNW 19:31:24 10° SSW
Cosmos 2082 Rocket 4.3 20:00:19 10° SSW 20:01:32 17° SSW 20:01:32 17° SSW
Lacrosse 5 3.9 20:08:46 10° WSW 20:10:44 23° WSW 20:10:44 23° WSW
CZ-4C R/B 4.3 20:26:46 10° WSW 20:28:18 19° WSW 20:28:18 19° WSW
